timestamp,surface_pressure_avg,surface_temp_avg,battery_voltage,lat,long
2024-01-29 00:09:00+00:00,329.8263,1.0,11.53,47.84626,-54.09684
2024-01-29 00:19:00+00:00,332.4964,1.0,11.53,47.84626,-54.09684
2024-01-29 00:29:00+00:00,340.0096,1.0,11.53,47.84626,-54.09684
2024-01-29 00:39:00+00:00,343.718,1.0,11.53,47.84626,-54.09684
2024-01-29 00:49:00+00:00,343.1346,0.97,11.53,47.84626,-54.09684
2024-01-29 00:59:00+00:00,348.1196,0.98,11.53,47.84626,-54.09684
2024-01-29 01:09:00+00:00,351.5897,0.97,11.53,47.84626,-54.09684
2024-01-29 01:19:00+00:00,348.9412,0.93,11.53,47.84626,-54.09684
2024-01-29 01:29:00+00:00,344.5963,0.9,11.53,47.84626,-54.09684
2024-01-29 01:39:00+00:00,346.0247,0.92,11.53,47.84626,-54.09684
2024-01-29 01:49:00+00:00,345.973,0.9,11.53,47.84626,-54.09684
2024-01-29 01:59:00+00:00,345.2296,0.9,11.53,47.84626,-54.09684
2024-01-29 02:09:00+00:00,350.0746,0.91,11.53,47.84626,-54.09684
2024-01-29 02:19:00+00:00,349.4913,0.9,11.53,47.84626,-54.09684
2024-01-29 02:29:00+00:00,349.0496,0.9,11.53,47.84626,-54.09684
2024-01-29 02:39:00+00:00,351.8863,0.9,11.53,47.84626,-54.09684
2024-01-29 02:49:00+00:00,350.1629,0.9,11.53,47.84626,-54.09684
2024-01-29 02:59:00+00:00,344.73800000000006,0.9,11.53,47.84626,-54.09684
2024-01-29 03:09:00+00:00,344.0546,0.9,11.53,47.84626,-54.09684
2024-01-29 03:19:00+00:00,345.6046,0.9,11.53,47.84626,-54.09684
2024-01-29 03:29:00+00:00,342.1847,0.9,11.53,47.84626,-54.09684
2024-01-29 03:39:00+00:00,335.3697,0.9,11.53,47.84626,-54.09684
2024-01-29 03:49:00+00:00,334.2162,0.9,11.53,47.84626,-54.09684
2024-01-29 03:59:00+00:00,329.74300000000005,0.9,11.53,47.84626,-54.09684
2024-01-29 04:09:00+00:00,322.9547,0.9,11.53,47.84626,-54.09684
2024-01-29 04:19:00+00:00,319.6747,0.9,11.53,47.84626,-54.09684
2024-01-29 04:29:00+00:00,312.2531,0.9,11.53,47.84626,-54.09684
2024-01-29 04:39:00+00:00,300.9814,0.92,11.53,47.84626,-54.09684
2024-01-29 04:49:00+00:00,292.71299999999997,0.98,11.53,47.84626,-54.09684
2024-01-29 04:59:00+00:00,286.0314,1.0,11.53,47.84626,-54.09684
2024-01-29 05:09:00+00:00,274.9914,1.0,11.53,47.84626,-54.09684
2024-01-29 05:19:00+00:00,263.0064,1.0,11.53,47.84626,-54.09684
2024-01-29 05:29:00+00:00,255.2047,1.0,11.53,47.84626,-54.09684
2024-01-29 05:39:00+00:00,247.4264,1.0,11.53,47.84626,-54.09684
2024-01-29 05:49:00+00:00,242.0365,1.0,11.53,47.84626,-54.09684
2024-01-29 05:59:00+00:00,242.768,1.01,11.53,47.84626,-54.09684
2024-01-29 06:09:00+00:00,241.2831,1.06,11.53,47.84626,-54.09684
2024-01-29 06:19:00+00:00,233.9064,1.07,11.53,47.84626,-54.09684
2024-01-29 06:29:00+00:00,229.7081,1.1,11.53,47.84626,-54.09684
2024-01-29 06:39:00+00:00,233.6947,1.1,11.53,47.84626,-54.09684
2024-01-29 06:49:00+00:00,227.2498,1.1,11.53,47.84626,-54.09684
2024-01-29 06:59:00+00:00,218.7014,1.1,11.53,47.84626,-54.09684
2024-01-29 07:09:00+00:00,220.1897,1.1,11.53,47.84626,-54.09684
2024-01-29 07:19:01+00:00,218.4597,1.14,11.53,47.84626,-54.09684
2024-01-29 07:29:01+00:00,213.8881,1.17,11.53,47.84626,-54.09684
2024-01-29 07:39:01+00:00,217.3214,1.19,11.53,47.84626,-54.09684
2024-01-29 07:49:01+00:00,219.3365,1.2,11.53,47.84626,-54.09684
2024-01-29 07:59:01+00:00,219.4965,1.2,11.53,47.84626,-54.09684
2024-01-29 08:09:01+00:00,224.7598,1.2,11.53,47.84626,-54.09684
2024-01-29 08:19:00+00:00,230.5815,1.2,11.53,47.84626,-54.09684
2024-01-29 08:29:00+00:00,234.7997,1.2,11.53,47.84626,-54.09684
2024-01-29 08:39:00+00:00,233.0248,1.22,11.53,47.84626,-54.09684
2024-01-29 08:49:00+00:00,237.3814,1.27,11.53,47.84626,-54.09684
2024-01-29 08:59:00+00:00,240.6014,1.28,11.53,47.84626,-54.09684
2024-01-29 09:09:00+00:00,246.2114,1.29,11.53,47.84626,-54.09684
2024-01-29 09:19:00+00:00,247.6114,1.3,11.53,47.84626,-54.09684
2024-01-29 09:29:00+00:00,253.0364,1.3,11.53,47.84626,-54.09684
2024-01-29 09:39:00+00:00,254.718,1.2,11.53,47.84626,-54.09684
2024-01-29 09:49:00+00:00,257.8564,1.0,11.53,47.84626,-54.09684
2024-01-29 09:59:00+00:00,258.3997,0.87,11.53,47.84626,-54.09684
2024-01-29 10:09:00+00:00,263.3114,0.7,11.53,47.84626,-54.09684
2024-01-29 10:19:00+00:00,268.0831,0.6,11.53,47.84626,-54.09684
2024-01-29 10:29:00+00:00,277.4047,0.5,11.53,47.84626,-54.09684
2024-01-29 10:39:00+00:00,280.6097,0.5,11.53,47.84626,-54.09684
2024-01-29 10:49:00+00:00,281.6581,0.44,11.53,47.84626,-54.09684
2024-01-29 10:59:00+00:00,286.6347,0.4,11.53,47.84626,-54.09684
2024-01-29 11:09:00+00:00,292.3397,0.39,11.53,47.84626,-54.09684
2024-01-29 11:19:00+00:00,293.7681,0.2,11.53,47.84626,-54.09684
2024-01-29 11:29:00+00:00,300.1981,0.17,11.53,47.84626,-54.09684
2024-01-29 11:39:00+00:00,309.0431,0.1,11.53,47.84626,-54.09684
2024-01-29 11:49:00+00:00,317.203,0.1,11.53,47.84626,-54.09684
2024-01-29 11:59:00+00:00,316.1496,0.1,11.53,47.84626,-54.09684
2024-01-29 12:09:00+00:00,331.7396,0.18,11.53,47.84626,-54.09684
2024-01-29 12:19:01+00:00,341.208,0.18,11.53,47.84626,-54.09684
2024-01-29 12:29:01+00:00,345.3079,0.16,11.53,47.84626,-54.09684
2024-01-29 12:39:01+00:00,350.093,0.24,11.53,47.84626,-54.09684
2024-01-29 12:49:01+00:00,359.723,0.3,11.53,47.84626,-54.09684
2024-01-29 12:59:01+00:00,365.7863,0.3,11.53,47.84626,-54.09684
2024-01-29 13:09:01+00:00,357.2213,0.3,11.53,47.84626,-54.09684
2024-01-29 13:19:00+00:00,351.033,0.3,11.53,47.84626,-54.09684
2024-01-29 13:29:00+00:00,350.2746,0.3,11.53,47.84626,-54.09684
2024-01-29 13:39:00+00:00,351.088,0.3,11.53,47.84626,-54.09684
2024-01-29 13:49:00+00:00,362.7062,0.3,11.53,47.84626,-54.09684
2024-01-29 13:59:00+00:00,375.6062,0.36,11.53,47.84626,-54.09684
2024-01-29 14:09:00+00:00,372.2062,0.39,11.53,47.84626,-54.09684
2024-01-29 14:19:00+00:00,371.9463,0.3,11.53,47.84626,-54.09684
2024-01-29 14:29:00+00:00,382.9196,0.3,11.53,47.84626,-54.09684
2024-01-29 14:39:00+00:00,381.3478,0.3,11.53,47.84626,-54.09684
2024-01-29 14:49:00+00:00,367.5729,0.28,11.53,47.84626,-54.09684
2024-01-29 14:59:00+00:00,371.7229,0.38,11.53,47.84626,-54.09684
2024-01-29 15:09:00+00:00,372.5796,0.4,11.53,47.84626,-54.09684
2024-01-29 15:19:00+00:00,357.6929,0.35,11.53,47.84626,-54.09684
2024-01-29 15:29:00+00:00,349.5829,0.35,11.53,47.84626,-54.09684
2024-01-29 15:39:00+00:00,363.9763,0.35,11.53,47.84626,-54.09684
2024-01-29 15:49:00+00:00,363.1146,0.4,11.53,47.84626,-54.09684
2024-01-29 15:59:00+00:00,344.6479,0.03,11.53,47.84626,-54.09684
2024-01-29 16:09:00+00:00,343.3363,0.1,11.53,47.84626,-54.09684
2024-01-29 16:19:00+00:00,356.0947,0.16,11.46,47.84626,-54.09684
2024-01-29 16:29:00+00:00,345.093,0.19,11.46,47.84626,-54.09684
2024-01-29 16:39:00+00:00,327.0996,0.0,11.46,47.84626,-54.09684
2024-01-29 16:49:00+00:00,332.2162,0.11,11.46,47.84626,-54.09684
2024-01-29 16:59:00+00:00,331.9313,0.19,11.46,47.84626,-54.09684
2024-01-29 17:09:00+00:00,311.4963,0.0,11.46,47.84626,-54.09684
2024-01-29 17:19:00+00:00,293.8981,-0.0,11.46,47.84626,-54.09684
2024-01-29 17:29:00+00:00,300.113,0.09,11.46,47.84626,-54.09684
2024-01-29 17:39:00+00:00,297.6113,0.1,11.46,47.84626,-54.09684
2024-01-29 17:49:00+00:00,275.7081,0.08,11.46,47.84626,-54.09684
2024-01-29 17:59:00+00:00,259.8914,-0.1,11.46,47.84626,-54.09684
2024-01-29 18:09:00+00:00,259.0864,0.13,11.46,47.84626,-54.09684
2024-01-29 18:19:00+00:00,255.3365,0.3,11.46,47.84626,-54.09684
2024-01-29 18:29:00+00:00,243.0081,0.28,11.46,47.84626,-54.09684
2024-01-29 18:39:00+00:00,235.6381,0.0,11.46,47.84626,-54.09684
2024-01-29 18:49:00+00:00,232.9131,0.17,11.46,47.84626,-54.09684
2024-01-29 18:59:00+00:00,228.3748,0.4,11.46,47.84626,-54.09684
2024-01-29 19:09:00+00:00,210.3531,0.3,11.46,47.84626,-54.09684
2024-01-29 19:19:00+00:00,193.5948,0.1,11.46,47.84626,-54.09684
2024-01-29 19:29:00+00:00,196.4398,-0.2,11.46,47.84626,-54.09684
2024-01-29 19:39:00+00:00,203.1864,-0.13,11.46,47.84626,-54.09684
2024-01-29 19:49:00+00:00,192.9415,-0.26,11.46,47.84626,-54.09684
2024-01-29 19:59:00+00:00,191.5814,-0.4,11.46,47.84626,-54.09684
2024-01-29 20:09:00+00:00,209.0848,-0.29,11.46,47.84626,-54.09684
2024-01-29 20:19:00+00:00,210.8564,-0.2,11.46,47.84626,-54.09684
2024-01-29 20:29:00+00:00,206.9365,-0.21,11.46,47.84626,-54.09684
2024-01-29 20:39:00+00:00,212.5948,-0.08,11.46,47.84626,-54.09684
2024-01-29 20:49:00+00:00,225.0598,0.0,11.46,47.84626,-54.09684
2024-01-29 20:59:00+00:00,225.7131,-0.28,11.46,47.84626,-54.09684
2024-01-29 21:09:00+00:00,217.3848,-0.3,11.46,47.84626,-54.09684
2024-01-29 21:19:00+00:00,230.5114,-0.19,11.46,47.84626,-54.09684
2024-01-29 21:29:00+00:00,240.5115,-0.2,11.46,47.84626,-54.09684
2024-01-29 21:39:00+00:00,235.6614,-0.24,11.46,47.84626,-54.09684
2024-01-29 21:49:00+00:00,237.7498,-0.2,11.46,47.84626,-54.09684
2024-01-29 21:59:00+00:00,252.9598,-0.2,11.46,47.84626,-54.09684
2024-01-29 22:09:00+00:00,256.9614,-0.3,11.46,47.84626,-54.09684
2024-01-29 22:19:00+00:00,251.2131,-0.3,11.46,47.84626,-54.09684
2024-01-29 22:29:00+00:00,257.1014,-0.26,11.46,47.84626,-54.09684
2024-01-29 22:39:00+00:00,278.6913,-0.3,11.46,47.84626,-54.09684
2024-01-29 22:49:00+00:00,266.5931,-0.33,11.46,47.84626,-54.09684
2024-01-29 22:59:00+00:00,262.6564,-0.24,11.46,47.84626,-54.09684
2024-01-29 23:09:00+00:00,271.3847,-0.3,11.46,47.84626,-54.09684
2024-01-29 23:19:00+00:00,270.7497,-0.28,11.46,47.84626,-54.09684
2024-01-29 23:29:00+00:00,268.4764,-0.2,11.46,47.84626,-54.09684
2024-01-29 23:39:00+00:00,281.553,-0.2,11.46,47.84626,-54.09684
2024-01-29 23:49:00+00:00,282.313,0.08,11.46,47.84626,-54.09684
2024-01-29 23:59:00+00:00,275.4197,-0.04,11.46,47.84626,-54.09684
